Location: G�nzburg
(48.4565°N, 10.3217°E)
Time: 21:30:05
(UTC+02:00)

ISS - Visible Passes

Search period start: 25 September 2020 00:00
Search period end: 05 October 2020 00:00
Orbit: 419 x 420 km, 51.6° (Epoch: 26 September)

Date Brightness Start Highest point End Pass type
(mag) Time Alt. Az. Time Alt. Az. Time Alt. Az.
25 Sep -3.0 20:58:15 10° WNW 21:01:32 46° N 21:02:08 41° NE visible
26 Sep -3.0 20:10:46 10° W 20:14:04 48° N 20:16:31 16° ENE visible
26 Sep -1.5 21:47:49 10° WNW 21:49:28 26° WNW 21:49:28 26° WNW visible
27 Sep -3.4 21:00:24 10° WNW 21:03:44 53° N 21:03:50 53° NNE visible
28 Sep -3.1 20:12:56 10° WNW 20:16:14 48° N 20:18:11 21° ENE visible
28 Sep -1.2 21:49:50 10° WNW 21:51:09 22° WNW 21:51:09 22° WNW visible
29 Sep -3.6 21:02:24 10° WNW 21:05:30 71° NW 21:05:30 71° NW visible
30 Sep -3.6 20:14:58 10° WNW 20:18:20 64° NNE 20:19:53 28° E visible
30 Sep -0.9 21:51:55 10° WNW 21:52:51 16° W 21:52:51 16° W visible
01 Oct -3.3 19:27:31 10° WNW 19:30:50 53° N 19:34:09 10° E visible
01 Oct -3.0 21:04:23 10° WNW 21:07:15 47° WSW 21:07:15 47° WSW visible
02 Oct -3.7 20:16:54 10° WNW 20:20:17 75° SSW 20:21:42 32° SE visible
02 Oct -0.5 21:54:30 10° W 21:54:40 11° W 21:54:40 11° W visible
03 Oct -3.7 19:29:26 10° WNW 19:32:49 82° NNE 19:36:11 10° ESE visible
03 Oct -1.8 21:06:36 10° W 21:09:10 23° SW 21:09:10 23° SW visible
04 Oct -2.5 20:18:54 10° WNW 20:22:01 35° SW 20:23:45 20° SSE visible
